Temp
13 13 13 13 13 13 13 13 12 12 12 12 12 12 11 12 11 11 11 11 11 11 12 12 11 11 11 11 11 11 11 11 11 11 11 12 12 12 12 12 12 12
13 13 13 13 12 12 12 13 12 12 12 12 12 12 11 11 11 11 11 11 11 11 12 12 11 11 11 11 11 11 11 11 11 11 11 11 11 11 11 12 12 12
13 13 13 13 13 12 12 12 12 12 12 12 12 12 11 11 11 11 11 11 11 11 12 12 12 11 11 11 11 11 11 11 11 11 11 11 11 11 11 12 12 12
13 13 13 13 13 12 12 12 11 11 11 12 12 12 11 11 11 11 11 11 11 12 12 12 12 12 11 11 11 11 11 11 11 11 11 11 11 11 11 11 11 12
13 13 12 12 13 12 12 12 12 11 11 11 11 12 11 11 11 11 11 11 11 12 12 12 12 12 12 12 11 11 10 10 11 11 11 11 11 11 11 11 11 12
13 12 12 12 12 12 12 12 12 12 11 11 12 12 12 11 11 11 11 12 12 12 12 12 13 13 12 12 11 11 11 11 11 11 11 11 11 11 11 11 12 12
13 12 12 12 12 12 12 12 12 11 11 11 12 12 12 12 12 12 12 12 12 12 12 13 13 13 12 12 12 11 11 12 12 12 12 11 11 11 11 11 11 12
13 13 12 12 12 12 12 12 12 11 11 12 12 12 12 12 12 12 12 12 12 12 12 12 13 13 13 12 12 12 12 12 12 12 12 11 11 11 11 11 11 12
13 12 12 12 12 12 12 12 12 11 11 12 12 12 13 13 13 12 12 12 12 12 12 12 13 13 13 13 13 13 12 12 12 12 12 11 11 11 11 11 11 11
13 12 12 12 12 12 12 12 12 11 11 12 12 12 13 13 13 13 13 12 12 12 12 12 13 13 13 13 13 13 13 12 12 12 12 12 11 11 11 11 11 11
13 12 12 12 12 12 12 12 11 11 11 12 12 12 13 13 13 13 13 13 13 13 13 13 13 13 13 13 13 13 12 12 12 12 12 12 12 11 11 11 11 11
12 12 12 12 12 12 12 12 11 11 11 11 12 12 12 13 13 13 13 13 13 13 13 13 13 13 13 13 13 12 12 12 12 11 11 11 11 11 11 11 11 11
12 12 12 12 12 12 12 11 11 11 11 11 11 12 12 12 13 13 13 13 13 13 13 13 13 13 13 13 12 12 12 12 11 11 11 11 11 11 11 11 11 11
11 11 11 11 12 12 12 11 11 11 11 11 11 11 12 12 12 13 13 13 13 13 13 13 13 13 13 13 12 12 12 11 11 11 11 11 11 11 11 11 11 11
11 11 11 11 11 12 11 11 11 11 11 10 11 11 11 11 12 12 13 13 13 13 13 13 13 13 13 12 12 12 11 11 11 11 10 10 10 10 11 11 11 11
11 11 11 11 11 11 11 11 11 11 11 10 11 11 11 11 11 11 12 12 12 13 13 13 13 12 12 12 12 12 11 11 10 10 10 10 10 10 10 10 10 10
10 11 11 11 11 11 11 11 10 10 10 11 11 11 11 11 11 11 11 11 12 12 12 12 12 12 12 12 12 12 11 11 10 10 10 10 10 10 10 10 10 10
9 10 11 11 11 11 10 10 10 10 11 11 11 12 12 12 11 11 11 11 11 12 12 12 11 11 11 11 12 11 11 11 10 10 10 10 10 10 10 10 10 10
9 10 10 10 10 10 10 10 10 10 10 11 11 11 12 11 10 10 10 11 11 11 11 11 11 11 11 11 11 11 11 10 10 10 10 10 10 10 10 10 10 10
9 9 9 9 9 9 9 9 9 10 10 10 11 11 11 10 10 10 11 11 11 11 11 10 10 10 10 10 10 10 10 10 10 10 10 10 10 10 10 10 10 10
9 8 9 9 9 9 9 9 9 9 9 10 10 10 10 10 10 10 10 10 10 10 10 10 10 10 10 10 10 10 10 10 10 10 10 10 10 10 10 10 10 10
8 8 9 9 9 9 9 9 9 9 9 9 10 9 9 10 10 10 10 10 10 10 10 10 10 10 10 10 10 10 10 10 10 10 10 10 10 10 10 10 9 9
8 8 9 9 9 8 8 9 9 9 9 9 9 10 10 10 10 10 10 10 10 10 10 10 10 10 9 10 10 10 10 10 10 10 10 10 10 10 9 9 9 9
8 8 8 8 8 8 8 8 9 9 9 9 9 9 10 10 10 10 10 10 10 10 10 9 9 9 9 9 10 10 10 10 10 10 9 9 9 9 9 9 9 9
7 7 7 8 8 8 8 8 8 8 8 8 9 9 9 9 9 9 9 9 9 9 9 9 9 9 9 9 9 9 9 9 9 9 9 9 9 9 9 9 9 9
6 7 7 7 7 7 7 7 7 8 8 8 8 8 8 8 8 9 9 9 8 8 8 9 9 9 9 9 9 9 9 9 9 9 9 9 9 9 9 9 9 9
Height
1530 1533 1534 1536 1537 1539 1540 1542 1543 1544 1545 1547 1547 1548 1549 1550 1551 1553 1554 1554 1555 1555 1555 1556 1556 1557 1558 1559 1561 1562 1562 1563 1564 1564 1565 1565 1566 1566 1567 1567 1568 1568
1530 1532 1534 1535 1537 1538 1539 1541 1543 1544 1545 1546 1547 1548 1548 1550 1551 1552 1553 1554 1555 1555 1555 1556 1556 1557 1559 1560 1561 1562 1562 1563 1564 1564 1565 1566 1566 1567 1567 1567 1568 1568
1529 1531 1533 1535 1536 1537 1539 1541 1542 1544 1545 1546 1547 1548 1548 1549 1551 1552 1553 1554 1555 1555 1555 1556 1557 1557 1558 1559 1560 1561 1562 1563 1564 1564 1565 1566 1567 1567 1567 1568 1568 1568
1529 1531 1533 1534 1535 1537 1539 1540 1542 1543 1545 1546 1547 1547 1548 1549 1551 1552 1553 1554 1555 1555 1555 1556 1557 1557 1558 1559 1560 1561 1562 1563 1564 1564 1565 1566 1567 1567 1567 1568 1568 1568
1529 1531 1533 1534 1535 1536 1538 1539 1540 1542 1544 1545 1546 1547 1548 1549 1550 1552 1553 1554 1554 1555 1556 1556 1557 1557 1558 1559 1560 1561 1562 1563 1564 1564 1565 1566 1567 1567 1568 1568 1569 1569
1529 1531 1533 1534 1535 1536 1537 1538 1539 1541 1543 1544 1545 1547 1548 1549 1550 1551 1553 1554 1554 1555 1556 1556 1557 1557 1558 1559 1560 1561 1562 1563 1564 1564 1565 1566 1567 1568 1568 1569 1569 1570
1529 1531 1532 1534 1535 1536 1537 1538 1539 1540 1542 1544 1545 1546 1547 1549 1550 1551 1552 1554 1554 1555 1556 1556 1557 1558 1559 1559 1561 1562 1562 1563 1564 1565 1566 1567 1568 1569 1569 1570 1570 1571
1528 1530 1532 1533 1535 1536 1537 1538 1539 1540 1541 1543 1544 1546 1547 1548 1550 1551 1552 1553 1554 1555 1556 1557 1557 1558 1559 1560 1561 1562 1563 1563 1564 1565 1566 1567 1568 1569 1570 1570 1571 1572
1527 1529 1531 1533 1534 1535 1537 1538 1538 1540 1541 1542 1544 1545 1547 1548 1549 1550 1552 1553 1554 1555 1556 1557 1558 1559 1560 1561 1561 1562 1563 1564 1565 1566 1567 1568 1569 1570 1571 1571 1572 1573
1525 1527 1529 1531 1533 1535 1536 1537 1538 1540 1541 1542 1543 1545 1546 1548 1549 1550 1552 1553 1554 1555 1557 1558 1558 1559 1560 1561 1562 1563 1564 1565 1566 1567 1568 1568 1569 1570 1571 1572 1572 1573
1523 1525 1527 1530 1532 1534 1536 1538 1539 1540 1541 1542 1543 1545 1546 1547 1549 1550 1551 1553 1554 1556 1557 1558 1559 1560 1561 1562 1563 1563 1564 1566 1567 1568 1568 1569 1570 1570 1571 1572 1572 1573
1522 1524 1526 1528 1531 1534 1536 1538 1539 1541 1541 1542 1543 1545 1546 1547 1548 1550 1551 1553 1554 1556 1557 1559 1560 1561 1562 1562 1563 1564 1565 1566 1567 1568 1569 1570 1570 1571 1571 1572 1572 1573
1520 1521 1523 1527 1530 1533 1536 1538 1539 1541 1542 1543 1544 1545 1546 1547 1548 1550 1551 1553 1555 1556 1557 1559 1560 1561 1562 1563 1563 1564 1565 1566 1567 1568 1569 1570 1570 1571 1571 1572 1572 1573
1519 1520 1522 1527 1530 1532 1535 1537 1539 1541 1542 1543 1543 1544 1546 1547 1548 1550 1551 1553 1555 1556 1557 1559 1560 1561 1562 1563 1563 1564 1565 1566 1567 1568 1569 1569 1570 1570 1571 1571 1572 1572
1520 1520 1523 1528 1530 1531 1533 1536 1539 1541 1542 1543 1543 1544 1545 1547 1548 1550 1551 1553 1554 1556 1557 1558 1559 1560 1561 1562 1563 1564 1565 1566 1566 1567 1568 1569 1569 1570 1570 1571 1571 1571
1519 1520 1523 1527 1529 1531 1533 1535 1537 1539 1541 1542 1543 1543 1544 1546 1548 1549 1551 1553 1554 1555 1557 1558 1559 1560 1561 1562 1562 1563 1564 1565 1565 1566 1567 1567 1568 1569 1569 1569 1570 1570
1517 1519 1522 1525 1527 1530 1532 1533 1536 1539 1541 1542 1543 1543 1544 1546 1548 1549 1551 1552 1553 1554 1555 1556 1558 1559 1560 1561 1561 1562 1563 1563 1564 1565 1565 1566 1567 1567 1568 1568 1568 1569
1516 1518 1521 1523 1526 1528 1529 1532 1535 1538 1541 1542 1542 1543 1544 1546 1548 1549 1550 1552 1552 1553 1554 1555 1556 1557 1558 1559 1560 1561 1562 1562 1563 1563 1564 1565 1565 1565 1566 1566 1567 1567
1516 1518 1521 1523 1524 1526 1528 1531 1534 1537 1539 1540 1541 1543 1544 1545 1547 1548 1549 1550 1551 1551 1552 1553 1555 1556 1557 1558 1558 1559 1560 1561 1561 1562 1562 1563 1563 1564 1564 1564 1565 1565
1516 1518 1521 1523 1524 1526 1528 1531 1533 1535 1537 1538 1540 1541 1542 1543 1545 1546 1548 1549 1549 1549 1550 1552 1553 1554 1555 1556 1557 1558 1558 1559 1559 1560 1560 1561 1561 1561 1562 1562 1562 1562
1518 1519 1521 1523 1525 1526 1527 1530 1532 1534 1536 1537 1538 1540 1541 1542 1543 1545 1546 1546 1547 1547 1549 1550 1551 1552 1553 1554 1555 1556 1556 1556 1557 1557 1557 1558 1558 1559 1559 1560 1560 1560
1519 1520 1522 1523 1524 1525 1527 1529 1531 1532 1534 1536 1537 1538 1539 1540 1541 1543 1543 1544 1544 1545 1547 1548 1549 1550 1551 1551 1552 1553 1553 1554 1554 1554 1554 1555 1555 1556 1556 1557 1557 1557
1520 1521 1522 1523 1524 1525 1526 1528 1530 1531 1533 1534 1536 1536 1537 1538 1539 1540 1541 1542 1542 1543 1544 1546 1546 1547 1548 1549 1549 1550 1550 1551 1551 1551 1552 1552 1552 1553 1553 1553 1554 1554
1522 1523 1523 1524 1524 1525 1526 1528 1529 1531 1532 1533 1534 1535 1536 1537 1537 1538 1539 1540 1540 1541 1542 1543 1544 1545 1546 1546 1547 1547 1548 1548 1548 1549 1549 1549 1549 1550 1550 1550 1551 1551
1524 1524 1525 1525 1525 1526 1527 1528 1529 1530 1531 1532 1533 1534 1535 1536 1536 1537 1538 1538 1539 1540 1541 1542 1542 1543 1543 1544 1545 1545 1545 1545 1546 1546 1546 1546 1547 1547 1547 1547 1547 1547
1526 1526 1527 1527 1527 1527 1528 1529 1530 1531 1532 1532 1533 1533 1535 1535 1536 1536 1537 1537 1537 1538 1539 1539 1540 1540 1541 1542 1542 1543 1543 1543 1543 1543 1544 1544 1544 1544 1544 1545 1545 1545
Wind_Speed
14 13 10 8 9 10 11 11 12 12 10 9 9 9 10 10 10 10 9 7 4 3 3 5 8 9 9 9 8 8 8 7 7 7 7 7 8 7 6 5 3 3
15 13 10 8 9 11 10 10 11 11 9 9 9 9 10 11 12 11 9 7 5 4 5 6 9 10 10 9 9 9 9 7 7 7 7 7 6 6 5 5 4 3
16 13 10 8 9 10 11 11 12 11 9 9 9 9 11 13 13 12 10 7 6 5 6 7 8 10 11 10 10 9 8 7 6 6 6 5 4 3 3 4 5 4
16 14 11 9 8 10 12 12 12 11 9 8 8 9 13 14 13 12 10 8 7 7 7 7 7 9 11 11 10 8 7 6 5 5 5 4 4 5 5 5 6 6
14 13 12 10 10 11 13 12 12 11 9 8 8 9 12 14 12 11 10 9 9 8 8 8 8 9 10 11 10 9 7 6 5 4 3 4 6 8 8 8 7 7
13 13 12 10 10 11 12 11 11 11 9 9 9 8 10 12 12 10 10 10 10 10 9 9 8 9 10 11 10 9 7 5 4 4 3 5 9 10 9 8 8 7
14 13 12 10 10 10 10 10 10 10 9 9 9 9 9 10 11 10 10 10 10 10 10 10 9 10 11 11 10 9 7 6 5 5 6 8 9 9 10 9 8 6
14 14 13 12 11 10 9 9 10 10 10 9 10 10 9 9 10 10 11 11 11 11 10 10 10 10 11 12 11 10 8 7 7 7 8 8 7 7 9 9 9 7
16 15 14 13 12 11 10 9 10 11 10 10 11 11 9 9 10 10 11 12 11 11 10 10 11 12 13 13 12 11 10 9 9 8 8 7 6 5 5 6 7 7
17 16 15 15 14 12 11 10 11 11 10 11 11 10 9 10 11 12 12 12 12 11 11 11 12 13 13 13 13 12 11 9 8 8 7 6 5 3 3 3 3 5
18 16 16 16 15 13 12 11 12 12 11 11 11 10 9 10 12 13 13 13 12 12 12 12 13 13 13 12 12 11 10 9 8 7 6 6 5 4 3 3 3 4
19 17 17 17 17 14 12 12 12 12 11 12 12 10 10 10 11 13 13 13 13 12 13 13 13 13 12 11 11 10 9 8 7 6 5 5 4 4 3 2 2 3
19 18 20 19 18 15 13 13 14 12 11 11 11 10 9 9 11 12 12 12 12 12 13 13 12 12 11 10 9 9 8 7 6 5 5 4 4 3 3 2 2 2
17 18 18 16 15 16 15 14 15 13 11 10 11 10 9 8 9 10 10 11 11 11 12 11 11 10 10 9 8 7 6 6 5 6 6 5 4 3 3 2 2 2
15 16 14 12 15 18 17 16 16 14 11 10 10 10 9 8 7 7 7 8 10 11 11 11 11 10 10 10 8 7 6 5 5 5 5 6 5 4 4 4 4 5
14 14 12 12 16 17 17 19 19 15 12 11 10 10 9 8 7 6 6 8 9 10 11 11 12 11 11 10 9 8 7 7 5 4 4 4 5 5 6 6 7 8
14 14 13 13 15 17 19 21 19 16 13 12 12 10 8 7 8 7 8 8 9 10 11 11 12 12 11 10 10 9 9 8 6 5 5 5 5 6 7 8 10 11
13 14 16 17 17 19 22 21 19 19 20 17 15 14 12 10 9 9 9 9 9 10 11 11 12 13 12 12 11 11 11 10 9 8 7 7 7 8 9 10 11 12
9 11 15 17 17 18 19 18 18 20 22 20 18 18 17 13 9 9 10 10 10 10 10 10 11 12 13 12 12 12 12 11 11 10 10 10 10 10 11 12 13 14
8 12 15 16 15 15 16 16 18 19 20 21 20 17 15 13 11 11 11 11 11 11 10 10 11 12 13 13 13 12 12 13 13 13 13 12 12 13 13 14 15 15
6 10 12 13 12 12 13 15 17 18 19 21 21 18 15 14 13 13 13 12 12 12 11 11 11 13 14 14 13 13 13 14 15 15 15 15 15 15 15 16 16 17
5 5 6 8 9 10 11 13 14 15 17 18 18 16 15 14 15 15 14 13 12 12 12 11 12 14 15 15 15 15 16 16 17 18 18 17 17 17 17 17 18 18
6 4 3 4 6 8 9 10 11 12 14 15 15 16 15 16 16 15 14 14 14 14 13 13 13 14 15 16 17 18 19 20 20 21 20 19 18 18 18 19 19 19
9 6 5 5 5 6 7 9 10 11 12 13 13 14 15 16 16 15 15 15 16 16 15 15 15 15 15 17 18 19 21 21 22 22 21 20 20 20 20 20 20 20
14 11 8 7 5 4 4 6 7 8 9 9 11 13 15 16 15 14 14 15 16 16 16 16 17 17 17 17 18 20 21 22 22 22 21 21 21 21 21 21 22 22
13 12 11 10 8 6 5 3 2 3 4 4 5 8 10 12 12 12 12 12 13 13 12 12 15 18 18 17 17 18 20 21 20 20 20 20 21 21 22 22 23 22
Wind_Direction
177 180 188 195 195 190 184 179 173 168 160 155 157 159 164 168 167 159 148 135 118 109 129 152 161 160 157 156 148 139 130 118 114 112 105 99 95 91 86 82 92 118
174 177 183 190 193 186 180 174 164 159 158 159 160 163 167 167 164 155 144 132 122 119 123 140 160 163 160 157 147 137 130 120 118 115 103 98 98 92 84 74 66 86
173 177 180 185 190 182 178 174 163 156 157 161 163 166 166 163 159 152 143 135 133 129 123 128 151 163 164 160 148 138 132 124 121 116 103 98 95 88 96 81 61 68
175 179 180 182 184 178 175 173 166 161 158 159 162 164 164 162 158 153 147 142 141 137 131 126 134 153 163 163 154 147 142 135 128 121 111 98 83 86 99 90 65 65
180 184 185 184 179 175 174 171 166 163 160 161 164 163 163 163 161 157 152 147 148 148 145 137 132 142 154 160 160 159 159 159 151 142 129 96 88 92 95 89 74 69
190 192 193 192 183 175 175 171 166 167 166 165 168 167 164 164 164 164 157 152 155 157 156 152 143 140 146 153 159 160 160 162 157 151 132 101 97 97 95 89 81 75
198 196 196 198 189 180 182 178 169 169 173 172 171 174 172 166 164 164 160 158 160 160 162 163 155 145 145 148 149 148 144 141 135 131 122 110 104 101 98 98 96 92
199 197 198 200 194 187 188 186 178 175 177 179 176 178 180 172 164 162 162 160 161 162 164 165 159 151 147 145 142 135 129 126 124 122 121 118 114 107 100 100 103 106
201 198 199 200 198 197 198 194 189 182 181 185 182 180 181 175 165 163 164 162 161 161 162 162 160 154 149 145 138 130 124 121 120 119 122 129 134 127 112 105 107 112
203 201 202 201 199 202 205 202 196 187 184 187 183 180 181 175 168 167 166 164 161 161 162 162 160 156 152 146 138 133 129 125 124 124 127 136 149 157 157 152 142 139
207 207 204 198 195 201 207 206 197 188 186 187 181 179 182 176 171 171 168 165 163 164 166 164 160 158 155 150 145 142 140 138 137 137 138 141 150 159 169 180 187 185
211 211 204 198 195 197 204 204 194 186 185 185 178 175 179 177 173 172 170 168 168 170 170 167 164 163 163 160 158 155 154 155 156 157 158 160 161 163 169 178 193 202
213 209 202 199 194 191 197 198 189 184 186 183 173 167 171 174 172 171 172 175 178 178 175 173 172 173 173 173 170 168 165 166 170 177 182 185 184 179 177 181 198 214
221 220 211 200 193 193 196 194 187 183 184 182 171 162 161 164 165 167 173 182 188 188 186 185 187 189 190 189 187 184 183 184 193 201 205 209 210 205 196 202 234 261
219 226 218 199 198 200 193 189 190 187 187 188 177 162 157 160 160 164 179 190 194 196 199 201 204 206 205 203 202 201 202 204 207 209 216 224 232 239 239 248 274 290
215 220 214 198 202 205 198 194 191 183 186 200 190 169 161 167 171 176 190 200 204 205 209 213 214 216 216 215 214 212 209 205 203 209 222 235 248 259 265 271 281 288
216 217 218 211 210 213 210 204 195 185 191 203 194 180 179 188 193 200 206 209 211 213 217 220 221 221 222 225 226 221 215 211 214 225 237 247 259 266 270 274 279 284
213 208 216 215 213 215 213 206 202 202 204 203 199 203 214 218 211 211 220 220 215 217 222 227 229 228 228 232 234 229 223 223 229 238 246 252 258 262 267 272 277 281
210 206 215 214 207 206 206 203 203 207 209 209 210 214 221 226 223 221 231 236 232 232 234 234 235 235 233 235 237 236 234 234 238 242 247 253 257 261 266 271 276 280
201 204 210 212 206 201 202 205 208 212 217 221 223 225 227 228 228 230 239 250 254 252 248 244 242 240 239 241 242 245 246 247 248 249 251 254 258 262 266 270 274 278
184 199 204 212 220 217 212 214 217 220 224 225 228 234 236 232 232 238 248 255 255 250 247 246 244 242 243 247 249 252 252 252 253 253 254 257 260 264 267 270 273 276
128 163 188 205 222 223 218 220 223 224 226 227 232 238 239 235 239 246 253 255 251 248 248 246 242 240 242 246 251 255 257 257 257 257 257 258 260 262 266 270 274 277
102 123 155 185 212 219 217 220 224 225 225 227 234 239 239 241 245 249 251 250 249 250 250 248 246 245 246 247 250 254 258 260 261 261 260 260 260 263 267 271 274 277
94 109 138 166 189 200 208 218 224 226 227 231 237 241 242 244 247 248 247 246 248 250 250 251 252 253 252 251 251 254 257 260 261 260 260 261 263 265 268 271 273 275
90 96 107 124 142 159 186 211 222 225 230 237 243 247 248 248 248 246 245 248 253 257 258 259 257 254 255 256 255 256 257 259 260 261 262 266 269 271 271 272 274 276
89 92 94 98 102 106 109 123 178 208 212 218 231 241 247 251 251 250 251 257 262 263 264 264 258 255 258 262 260 258 258 259 261 262 264 268 270 273 274 275 276 278